When you browse on this site, cookies collect data to enhance your experience and personalize the content and advertising you see.
Visit our Privacy Policy to learn more. By continuing to use the site, you agree to this use of cookies and data.
  • In Latvia
  • List of Countries
  • For 7 days
  • Water Temperature
  • Satellite Maps
  • Weather Map
  • Weather Widgets
  • user-avatar
    Login

    Hourly Weather Morzyna

    Today, 21 February, Thursday

    Time Temperature Precipitation Wind Pressure Humidity
    00:00 +5°C° 0 mm 3 mps 758 mmHg 81%
    01:00 +5°C° 0 mm 3 mps 758 mmHg 82%
    02:00 +4°C° 0 mm 3 mps 758 mmHg 84%
    03:00 +4°C° 0 mm 3 mps 757 mmHg 85%
    04:00 +3°C° 0 mm 3 mps 757 mmHg 87%
    05:00 +3°C° 0 mm 3 mps 757 mmHg 87%
    06:00 +3°C° 0 mm 3 mps 757 mmHg 88%
    07:00 +3°C° 0 mm 4 mps 757 mmHg 88%
    08:00 +4°C° 0 mm 4 mps 757 mmHg 84%
    09:00 +5°C° 0 mm 5 mps 757 mmHg 80%
    10:00 +6°C° 0 mm 5 mps 757 mmHg 75%
    11:00 +6°C° 0.4 mm 5 mps 757 mmHg 76%
    12:00 +6°C° 0.4 mm 5 mps 757 mmHg 77%
    13:00 +6°C° 0.4 mm 5 mps 757 mmHg 78%
    14:00 +6°C° 1 mm 5 mps 756 mmHg 80%
    15:00 +6°C° 1 mm 4 mps 756 mmHg 81%
    16:00 +6°C° 1 mm 4 mps 756 mmHg 83%
    17:00 +6°C° 0.3 mm 4 mps 756 mmHg 83%
    18:00 +6°C° 0.3 mm 4 mps 756 mmHg 84%
    19:00 +6°C° 0.3 mm 4 mps 756 mmHg 84%
    20:00 +6°C° 0.5 mm 5 mps 755 mmHg 86%
    21:00 +6°C° 0.5 mm 5 mps 755 mmHg 89%
    22:00 +6°C° 0.5 mm 5 mps 755 mmHg 91%
    23:00 +6°C° 0.5 mm 5 mps 755 mmHg 92%

    Tomorrow, 22 February, Friday

    Time Temperature Precipitation Wind Pressure Humidity
    00:00 +6°C° 0.5 mm 5 mps 755 mmHg 93%
    01:00 +6°C° 0.5 mm 5 mps 755 mmHg 93%
    02:00 +6°C° 0.5 mm 5 mps 756 mmHg 92%
    03:00 +5°C° 0.5 mm 6 mps 756 mmHg 91%
    04:00 +4°C° 0.5 mm 6 mps 757 mmHg 90%
    05:00 +3°C° 0 mm 6 mps 758 mmHg 86%
    06:00 0°C° 0 mm 7 mps 759 mmHg 81%
    07:00 -2°C° 0 mm 7 mps 761 mmHg 77%
    08:00 -2°C° 0 mm 7 mps 762 mmHg 70%
    09:00 -2°C° 0 mm 6 mps 764 mmHg 64%
    10:00 -2°C° 0 mm 6 mps 765 mmHg 57%
    11:00 -2°C° 0 mm 6 mps 766 mmHg 53%
    12:00 0°C° 0 mm 5 mps 766 mmHg 50%
    13:00 0°C° 0 mm 5 mps 767 mmHg 46%
    14:00 0°C° 0 mm 5 mps 767 mmHg 45%
    15:00 0°C° 0 mm 5 mps 768 mmHg 43%
    16:00 -1°C° 0 mm 4 mps 768 mmHg 41%
    17:00 -2°C° 0 mm 4 mps 769 mmHg 45%
    18:00 -1°C° 0 mm 3 mps 769 mmHg 49%
    19:00 -2°C° 0 mm 3 mps 770 mmHg 52%
    20:00 -2°C° 0 mm 2 mps 771 mmHg 52%
    21:00 -3°C° 0 mm 2 mps 771 mmHg 52%
    22:00 -3°C° 0 mm 2 mps 771 mmHg 51%
    23:00 -3°C° 0 mm 2 mps 772 mmHg 50%

    Day after tomorrow, 23 February, Saturday

    Time Temperature Precipitation Wind Pressure Humidity
    00:00 -3°C° 0 mm 2 mps 772 mmHg 49%
    01:00 -3°C° 0 mm 2 mps 772 mmHg 48%
    02:00 -3°C° 0 mm 2 mps 772 mmHg 47%
    03:00 -3°C° 0 mm 2 mps 772 mmHg 47%
    04:00 -3°C° 0 mm 2 mps 772 mmHg 46%
    05:00 -3°C° 0 mm 2 mps 772 mmHg 45%
    06:00 -2°C° 0 mm 1 mps 772 mmHg 44%
    07:00 -2°C° 0 mm 1 mps 772 mmHg 43%
    08:00 -1°C° 0 mm 1 mps 772 mmHg 39%
    09:00 -2°C° 0 mm 2 mps 773 mmHg 35%
    10:00 -1°C° 0 mm 2 mps 773 mmHg 30%
    11:00 -1°C° 0 mm 2 mps 772 mmHg 28%
    12:00 +1°C° 0 mm 2 mps 772 mmHg 26%
    13:00 +2°C° 0 mm 2 mps 772 mmHg 23%
    14:00 +3°C° 0 mm 1 mps 772 mmHg 24%
    15:00 +3°C° 0 mm 1 mps 771 mmHg 25%
    16:00 +3°C° 0 mm 1 mps 771 mmHg 26%
    17:00 +2°C° 0 mm 1 mps 771 mmHg 29%
    18:00 +1°C° 0 mm 1 mps 771 mmHg 32%
    19:00 0°C° 0 mm 1 mps 771 mmHg 34%
    20:00 0°C° 0 mm 1 mps 771 mmHg 35%
    21:00 -2°C° 0 mm 2 mps 771 mmHg 36%
    22:00 -2°C° 0 mm 2 mps 770 mmHg 37%
    23:00 -2°C° 0 mm 2 mps 770 mmHg 37%

    24 February, Sunday

    Time Temperature Precipitation Wind Pressure Humidity
    00:00 -2°C° 0 mm 2 mps 770 mmHg 36%
    01:00 -2°C° 0 mm 2 mps 770 mmHg 36%
    02:00 0°C° 0 mm 1 mps 770 mmHg 36%
    03:00 0°C° 0 mm 1 mps 769 mmHg 36%
    04:00 0°C° 0 mm 1 mps 769 mmHg 35%
    05:00 0°C° 0 mm 1 mps 769 mmHg 34%
    06:00 0°C° 0 mm 1 mps 769 mmHg 33%
    07:00 0°C° 0 mm 1 mps 769 mmHg 32%
    08:00 +1°C° 0 mm 1 mps 769 mmHg 30%
    09:00 +3°C° 0 mm 1 mps 769 mmHg 28%
    10:00 +3°C° 0 mm 2 mps 769 mmHg 26%
    11:00 +4°C° 0 mm 2 mps 769 mmHg 27%
    12:00 +5°C° 0 mm 2 mps 768 mmHg 27%
    13:00 +5°C° 0 mm 3 mps 768 mmHg 28%
    14:00 +6°C° 0 mm 2 mps 768 mmHg 33%
    15:00 +6°C° 0 mm 2 mps 768 mmHg 39%
    16:00 +6°C° 0 mm 2 mps 768 mmHg 44%
    17:00 +4°C° 0 mm 2 mps 768 mmHg 48%
    18:00 +3°C° 0 mm 2 mps 768 mmHg 51%
    19:00 +2°C° 0 mm 2 mps 768 mmHg 55%
    20:00 +2°C° 0 mm 2 mps 768 mmHg 58%
    21:00 +1°C° 0 mm 2 mps 768 mmHg 60%
    22:00 +1°C° 0 mm 2 mps 768 mmHg 63%
    23:00 +1°C° 0 mm 2 mps 768 mmHg 65%

    25 February, Monday

    Time Temperature Precipitation Wind Pressure Humidity
    00:00 +1°C° 0 mm 2 mps 768 mmHg 67%
    01:00 +1°C° 0 mm 2 mps 768 mmHg 69%
    02:00 +1°C° 0 mm 2 mps 768 mmHg 70%
    03:00 -1°C° 0 mm 3 mps 768 mmHg 71%
    04:00 -1°C° 0 mm 3 mps 768 mmHg 72%
    05:00 -1°C° 0 mm 3 mps 768 mmHg 73%
    06:00 -1°C° 0 mm 3 mps 768 mmHg 75%
    07:00 -1°C° 0 mm 3 mps 768 mmHg 76%
    08:00 +1°C° 0 mm 3 mps 768 mmHg 72%
    09:00 +2°C° 0 mm 3 mps 768 mmHg 67%
    10:00 +4°C° 0 mm 3 mps 769 mmHg 63%
    11:00 +5°C° 0 mm 3 mps 768 mmHg 61%
    12:00 +7°C° 0 mm 3 mps 768 mmHg 58%
    13:00 +8°C° 0 mm 3 mps 768 mmHg 56%
    14:00 +9°C° 0 mm 3 mps 767 mmHg 57%
    15:00 +9°C° 0 mm 3 mps 767 mmHg 58%
    16:00 +9°C° 0 mm 2 mps 767 mmHg 59%
    17:00 +8°C° 0 mm 2 mps 767 mmHg 63%
    18:00 +7°C° 0 mm 2 mps 767 mmHg 68%
    19:00 +6°C° 0 mm 2 mps 767 mmHg 72%
    20:00 +5°C° 0 mm 2 mps 767 mmHg 75%
    21:00 +5°C° 0 mm 2 mps 767 mmHg 77%
    22:00 +4°C° 0 mm 2 mps 766 mmHg 80%
    23:00 +3°C° 0 mm 3 mps 766 mmHg 81%

    26 February, Tuesday

    Time Temperature Precipitation Wind Pressure Humidity
    00:00 +3°C° 0 mm 3 mps 766 mmHg 83%
    01:00 +3°C° 0 mm 3 mps 765 mmHg 84%
    02:00 +3°C° 0 mm 3 mps 765 mmHg 85%
    03:00 +2°C° 0 mm 3 mps 764 mmHg 85%
    04:00 +2°C° 0 mm 3 mps 764 mmHg 86%
    05:00 +1°C° 0 mm 4 mps 763 mmHg 85%
    06:00 +1°C° 0 mm 4 mps 763 mmHg 85%
    07:00 +3°C° 0 mm 4 mps 763 mmHg 84%
    08:00 +3°C° 0 mm 5 mps 762 mmHg 79%
    09:00 +5°C° 0 mm 5 mps 762 mmHg 73%
    10:00 +7°C° 0 mm 6 mps 762 mmHg 68%
    11:00 +8°C° 0 mm 6 mps 761 mmHg 63%
    12:00 +9°C° 0 mm 6 mps 761 mmHg 58%
    13:00 +10°C° 0 mm 7 mps 760 mmHg 53%
    14:00 +10°C° 0 mm 6 mps 760 mmHg 55%
    15:00 +10°C° 0 mm 6 mps 760 mmHg 57%
    16:00 +10°C° 0 mm 6 mps 759 mmHg 58%
    17:00 +9°C° 0 mm 5 mps 760 mmHg 65%
    18:00 +9°C° 0 mm 5 mps 760 mmHg 71%
    19:00 +8°C° 0 mm 4 mps 761 mmHg 77%
    20:00 +7°C° 0 mm 4 mps 761 mmHg 83%
    21:00 +5°C° 0 mm 3 mps 761 mmHg 88%
    22:00 +4°C° 0 mm 3 mps 761 mmHg 94%
    23:00 +4°C° 0 mm 3 mps 762 mmHg 95%
    Show more